User: anonymous   Login
Location: Unspecified
(0.0000°N, 0.0000°E)
Time: 00:51:13
(UTC+00:00)
Language:

STARLINK-32624 - Orbit

View from above orbital plane
View from above orbital plane
View from above satellite
View from above satellite

Ground track
Ground track

The orbit is defined by the following mean orbital elements,

1 61926U          26144.90346294 +.00000000 +00000-0 +83031-3 0 00009
2 61926  43.0006 210.8444 0001800 274.7748  85.2898 15.27615822    09
Epoch (UTC): 24 May 2026 21:40:59
Eccentricity: 0.0001800
inclination: 43.0006°
perigee height: 482 km
apogee height: 484 km
right ascension of ascending node: 210.8444°
argument of perigee: 274.7748°
revolutions per day: 15.27615822
mean anomaly at epoch: 85.2898°

The dashed part of the orbit path shows where the satellite is in the earth's shadow,  

DLR